HB9UQS-13 Weather Reports


time (UTC)temp
C
wind
direction
speed
KPH
gust
KPH
rain 1hr
cm
rain 24hr
cm
rain mn
cm
humidity
%
barometer
mb
20260506210730 7 286 3.2 9.7 0.00 0.00 0.00 89 926.2
20260506203730 7 280 3.2 6.4 0.00 0.00 0.00 90 925.8
20260506200730 7 268 3.2 8.0 0.00 0.00 0.00 89 925.6
20260506193730 7 254 3.2 6.4 0.00 0.00 0.00 87 925.2
20260506190730 8 287 1.6 4.8 0.00 0.00 0.00 85 925.0
20260506183730 8 280 1.6 4.8 0.00 0.00 0.00 84 924.9
20260506180730 9 294 3.2 8.0 0.00 0.00 0.00 83 924.6
20260506173730 10 279 3.2 8.0 0.00 0.00 0.00 82 924.6
20260506170730 9 295 6.4 16.1 0.00 0.00 0.00 84 924.3
20260506163731 9 294 4.8 11.3 0.00 0.00 0.00 85 924.3
20260506160731 9 279 4.8 12.9 0.00 0.00 0.00 83 924.2
20260506153730 9 285 4.8 12.9 0.00 0.00 0.00 87 924.3
20260506150730 8 286 4.8 9.7 0.00 0.00 0.00 88 924.4
20260506143730 8 271 3.2 8.0 0.00 0.00 0.00 92 924.2
20260506140730 8 277 6.4 14.5 0.00 0.00 0.00 89 924.1
20260506133730 8 294 6.4 16.1 0.00 0.00 0.00 91 924.3
20260506130731 8 277 4.8 12.9 0.00 0.00 0.00 90 923.9
20260506123730 8 288 3.2 9.7 0.00 0.00 0.00 92 923.9
20260506120729 8 295 8.0 22.5 0.00 0.00 0.00 93 923.5
20260506113729 8 273 8.0 17.7 0.00 0.00 0.00 94 923.4
20260506110730 7 292 9.7 19.3 0.00 0.00 0.00 95 923.3
20260506103730 8 288 6.4 19.3 0.00 0.00 0.00 95 923.4
20260506100730 8 288 6.4 14.5 0.00 0.00 0.00 96 923.1
20260506093730 8 277 4.8 9.7 0.00 0.00 0.00 95 922.7
20260506090730 9 291 1.6 4.8 0.00 0.00 0.00 94 922.4
20260506083730 9 269 1.6 3.2 0.00 0.00 0.00 93 922.0
20260506080730 10 174 1.6 3.2 0.00 0.00 0.00 92 921.6
20260506070729 8 321 1.6 4.8 0.00 0.00 0.00 96 921.5
20260506060730 8 282 1.6 6.4 0.00 0.00 0.00 97 921.7
20260506050730 5 125 0.0 3.2 0.00 0.00 0.00 96 922.0
20260506043730 4 212 0.0 3.2 0.00 0.00 0.00 96 921.8
20260506040730 4 306 0.0 1.6 0.00 0.00 0.00 96 922.0
20260506033731 5 221 0.0 3.2 0.00 0.00 0.00 95 922.1
20260506030730 5 124 0.0 1.6 0.00 0.00 0.00 96 922.4
20260506023730 6 166 1.6 3.2 0.00 0.00 0.00 95 922.9
20260506020730 5 202 0.0 0.0 0.00 0.00 0.00 93 923.0
20260506013730 7 307 1.6 4.8 0.00 0.00 0.00 89 923.2
20260506010730 8 238 1.6 4.8 0.00 0.00 0.00 88 923.5
20260506003730 9 260 1.6 3.2 0.00 0.00 0.00 90 924.1
20260506000730 9 240 0.0 3.2 0.00 0.00 0.00 91 924.4
20260505233731 8 290 0.0 3.2 0.00 0.00 0.00 93 924.5
20260505230730 9 216 1.6 1.6 0.00 0.00 0.00 88 924.9
20260505223730 9 278 1.6 3.2 0.00 0.00 0.00 91 924.9
20260505220730 8 113 0.0 3.2 0.00 0.00 0.00 93 924.8
20260505213730 8 279 1.6 4.8 0.00 0.00 0.00 92 924.9